Location: Julian California
(33.0790°N, 116.6010°W)
Time: 06:16:20
(UTC-07:00)

Cosmos 1500 - Pass Details

Date: 19 May 2017
Orbit: 502 x 525 km, 82.5° (Epoch: 28 May)

Event Time Altitude Azimuth Distance (km) Brightness Sun altitude
Rises 21:37:35 0° 344° (NNW) 2,610 7.8 -20.9°
Reaches altitude 10° 21:39:48 10° 337° (NNW) 1,718 6.8 -21.2°
Maximum altitude 21:43:19 39° 268° (W) 762 4.3 -21.8°
Enters shadow 21:44:35 29° 224° (SW) 937 4.4 -21.9°
